Location: Unspecified
(0.0000°N, 0.0000°E)
Time: 11:04:25
(UTC+00:00)

Vanguard 3 - Pass Details

Date: 23 November 2019
Orbit: 508 x 3263 km, 33.3° (Epoch: 14 December)

Event Time Altitude Azimuth Distance (km) Brightness Sun altitude
Rises 18:37:17 0° 317° (NW) 6,783 12.2 -11.9°
Reaches altitude 10° 18:43:07 10° 326° (NW) 5,393 11.5 -13.3°
Maximum altitude 18:55:36 32° 23° (NNE) 2,860 9.5 -16.2°
Enters shadow 19:00:13 23° 63° (ENE) 2,868 9.3 -17.3°
Drops below altitude 10° 19:03:27 10° 83° (E) 3,377 - -18.0°
Sets 19:06:09 0° 94° (E) 4,024 - -18.6°
